Flag for Chile Weather past 2 weeks in Easter Island, Chile

61 °F

Lots of rain. Broken clouds.

Feels Like: 61 °F
Forecast: 57 / 61 °F
Wind: 16 mph from East

Location: Isla De Pascua

Current Time: Oct 4, 2015 at 6:59:02 PM

Latest Report: Oct 4, 2015 at 6:00 PM

Visibility: 2 mi

Pressure: 30.04 "Hg

Humidity: 88%

Dew point: 57 °F

Location of Easter IslandLocation

Historic Weather in Easter Island — Graph


Easter Island temperature yesterday

Maximum temperature yesterday: 68 °F (at 12:00 PM)
Minimum temperature yesterday: 55 °F (at 11:00 PM)
Average temperature yesterday: 63 °F

Past Weeks' High & Low Weather Summary

High79 °F (Oct 4, 10:15 AM)94% (Sep 26, 5:00 AM)30.27 "Hg (Sep 26, 5:00 AM)
Low54 °F (Sep 22, 3:00 AM)52% (Oct 3, 5:00 PM)29.98 "Hg (Oct 4, 6:00 AM)
Average66 °F77%30.15 "Hg
* Reported Sep 19 5:00 PM — Oct 4 5:00 PM, Easter Island, Weather by CustomWeather, © 2015

Note: Actual official high and low records may vary slightly from our data, if they occured in-between our weather recording intervals... More about our weather records


Easter Island weather history for previous 24 hours

Time TempWeatherWind HumidityBarometerVisibility
5:00 PM
Sun, Oct 4
61 °FSprinkles. Partly sunny.18 mph83%30.01 "Hg4 mi
4:00 PM63 °FPartly sunny.21 mph77%30.01 "HgN/A
3:00 PM63 °FPartly sunny.18 mph77%30.04 "HgN/A
2:00 PM64 °FPartly sunny.17 mph78%30.04 "HgN/A
1:00 PM61 °FSprinkles. Partly sunny.13 mph88%30.07 "Hg4 mi
12:00 PM59 °FSprinkles. Partly sunny.13 mph88%30.07 "Hg4 mi
11:00 AM61 °FSprinkles. Partly sunny.12 mph83%30.07 "Hg4 mi
10:15 AM79 °FSandstorm.N/A89%30.07 "Hg2 mi
10:00 AM59 °FSprinkles. Broken clouds.6 mph88%30.07 "Hg4 mi
9:00 AM59 °FLight rain. Broken clouds.9 mph88%30.04 "Hg4 mi
8:00 AM59 °FSprinkles. More clouds than sun.7 mph82%30.04 "Hg5 mi
7:00 AM57 °FSprinkles. Passing clouds.8 mph88%30.01 "Hg4 mi
6:00 AM57 °FSprinkles. Passing clouds.10 mph88%29.98 "Hg6 mi
5:00 AM57 °FSprinkles. Passing clouds.2 mph88%30.01 "Hg5 mi
4:00 AM57 °FSprinkles. Passing clouds.5 mph88%30.04 "Hg6 mi
3:00 AM57 °FSprinkles. Passing clouds.9 mph88%30.07 "Hg3 mi
2:00 AM57 °FSprinkles. Passing clouds.12 mph88%30.07 "Hg4 mi
1:00 AM57 °FSprinkles. Passing clouds.8 mph88%30.07 "Hg5 mi
12:00 AM55 °FSprinkles. Passing clouds.7 mph88%30.09 "Hg4 mi
11:00 PM
Sat, Oct 3
55 °FSprinkles. Passing clouds.8 mph88%30.07 "Hg5 mi
10:00 PM57 °FSprinkles. Passing clouds.7 mph82%30.09 "Hg4 mi
9:00 PM57 °FSprinkles. Mostly cloudy.3 mph82%30.07 "Hg5 mi
8:00 PM59 °FRain showers. More clouds than sun.2 mph77%30.07 "Hg4 mi
7:00 PM63 °FSprinkles. Broken clouds.7 mph64%30.04 "Hg4 mi
6:00 PM64 °FPartly sunny.13 mph60%30.01 "HgN/A
Weather by CustomWeather, © 2015

See weather overviewHow to use our weather pages